www.pogodaiklimat.ru

Погода и климат >> Архив погоды >> Китай >> Синьцзян-Уйгурский автономный район >> Тажонг


ПОГОДА в Тажонге

  • Прогноз погоды в Тажонге
  • Монитор погоды в Тажонге

АРХИВ ПОГОДЫ в Тажонге

Время (UTC), дата Ветер
(напр.,м/с)
 
Видим.   Явления Облачность Т
(С)
Тd
(С)
f
(%)
Тe
(С)
Тes
(С)
Комфортность P
(гПа)
Po
(гПа)
Тmin
(С)
Tmax
(С)
R
(мм)
R24
(мм)
S
(см)
09 12.07 С 3 13 км 9/9 1500 м
[]
+34.2 +9.5 22 +33 +34 жарко 999.8 884.8
12 12.07 В 2 16 км ясно +33.9 +7.1 19 +32 +34 жарко 999.4 882.2
15 12.07 В 2 17 км н/о +26.8 +11.7 39 +28 +28 жарко 1000.1 882.4
18 12.07 В 2 20 км ?/? +21.3 +9.9 48 +23 +23 комфорт 1000.3 883.4 +34.8
21 12.07 В 2 15 км н/о +17.1 +10.5 65 +17 +17 1000.0 878.6
00 13.07 Ю 3 9000 м ясно +20.8 +11.2 54 +23 +24 комфорт 999.2 879.3
03 13.07 Ю 3 18 км ясно +32.2 +5.7 19 +30 +39 жарко 997.8 882.3
06 13.07 В 5 18 км ясно +35.3 +0.4 11 +32 +42 жарко 996.6 882.3 +17.1
09 13.07 Ю 4 24 км ясно +37.1 -2.6 8 +33 +43 жарко 994.6 881.2
15 13.07 С 1 13 км н/о +25.1 +9.4 37 +26 +26 жарко 993.9 876.3
18 13.07 С 1 28 км н/о +19.1 +6.6 44 +21 +21 комфорт 994.5 874.6 +37.9
21 13.07 С 2 29 км н/о +17.8 +8.4 54 +18 +18 994.1 873.7
00 14.07 штиль 0 30 км 1/1
[]
+15.9 +7.7 58 +16 +16 994.3 873.1
03 14.07 Ю 3 26 км 1/1
[]
+32.5 +0.6 13 +29 +37 жарко 993.3 878.4
06 14.07 Ю 3 23 км 6/6 1000 м
[]
+37.6 -2.2 8 +34 +40 очень
жарко
992.1 879.2 +15.2
09 14.07 С 4 8000 м 9/9 1500 м
[]
+37.2 +1.9 11 +34 +35 очень
жарко
990.6 877.7
12 14.07 С 13
{17}
800 м пыльный позёмок ?/? +33.4 +6.7 19 +31 +31 жарко 992.3 877.9
15 14.07 С 6
{18}
3000 м мгла ?/? +29.8 +6.5 23 +29 +29 жарко 991.9 876.2
18 14.07 С 4
{18}
6000 м мгла ?/? +26.9 +8.4 31 +27 +27 жарко 992.4 875.6 +38.4
21 14.07 С 2 12 км н/о +24.9 +8.4 35 +25 +25 комфорт 992.3 874.8
00 15.07 ЮЗ 2 11 км в посл. час ливневой дождь 10/10 1000 м
[]
+20.9 +15.4 71 +25 +25 комфорт 996.1 876.7 0.2
03 15.07 Ю 2 14 км слаб. ливневой дождь 10/10 1000 м
[]
+22.7 +16.5 68 +27 +27 душно 997.7 878.8
06 15.07 Ю 5 6000 м пыльный позёмок {ливн. осадки} 9/9 1500 м
[]
+28.4 +10.1 32 +29 +30 жарко 997.4 880.6 +20.5 0.1
09 15.07 Ю 3 14 км 9/9 1500 м
[]
+30.4 +8.2 25 +30 +31 жарко 995.7 879.8
12 15.07 С 6 6000 м пыльный позёмок 9/9 1000 м
[]
+26.4 +11.3 39 +28 +28 жарко 998.6 880.9
15 15.07 ЮВ 2 20 км н/о +23.6 +11.0 45 +25 +25 комфорт 999.5 880.7
18 15.07 ЮЗ 1 10 км н/о +20.3 +10.4 53 +23 +23 комфорт 1000.2 880.0 +30.7
21 15.07 штиль 0 13 км н/о +16.3 +11.0 71 +16 +16 1000.5 878.7
00 16.07 Ю 2 10 км ясно +15.5 +11.5 77 +15 +16 1002.5 880.2
03 16.07 З 2 7000 м пыль 8/8
[]
+26.2 +10.8 38 +27 +29 жарко 1001.9 883.8
06 16.07 СВ 1 13 км 9/9
[]
+31.1 +7.5 23 +30 +32 жарко 1000.9 884.7 +14.4
09 16.07 С 3 13 км 8/8 1500 м
[]
+34.1 +6.4 18 +32 +34 жарко 999.3 884.3
12 16.07 Ю 6 8000 м 9/9 1500 м
[]
+28.2 +8.5 29 +28 +28 жарко 1001.8 884.4
15 16.07 Ю 7 2400 м мгла н/о +23.3 +11.4 47 +26 +26 жарко 1003.6 884.2
18 16.07 Ю 3 23 км н/о +20.0 +11.0 56 +22 +22 комфорт 1003.0 882.4 +34.2
21 16.07 Ю 1 27 км н/о +17.2 +9.9 62 +18 +18 1002.9 881.2
00 17.07 штиль 0 24 км ясно +14.4 +10.2 76 +14 +15 1005.7 882.6
03 17.07 В 3 19 км ясно +26.8 +10.9 37 +28 +36 жарко 1005.4 887.1
06 17.07 В 2 18 км ясно +33.0 +5.5 18 +31 +51 опасность
солнечного
удара
1003.6 887.7 +14.0
09 17.07 СВ 6 22 км ясно +35.3 +3.8 14 +32 +38 жарко 1001.6 886.8
12 17.07 В 6 13 км ясно +34.8 +1.2 12 +31 +32 жарко 1001.7 886.7
15 17.07 С 1 16 км ?/? +26.9 +6.9 28 +26 +26 жарко 1002.3 884.4
18 17.07 В 2 20 км н/о +23.1 +5.1 31 +23 +23 комфорт 1001.9 882.6 +36.2
21 17.07 С 1 18 км н/о +17.4 +8.3 55 +18 +18 1002.0 880.5
00 18.07 штиль 0 15 км ясно +15.6 +8.6 63 +15 +16 1003.5 881.1
03 18.07 В 2 14 км ясно +32.0 +6.3 20 +30 +40 жарко 1002.0 886.0
06 18.07 Ю 3 19 км ясно +35.0 +1.4 12 +32 +48 жарко 1000.8 886.0 +15.2
09 18.07 В 6 17 км ясно +37.2 +0.5 10 +34 +39 очень
жарко
998.9 885.0
12 18.07 В 4 19 км ясно +36.7 -1.3 9 +33 +34 жарко 998.0 884.1
15 18.07 С 1 21 км н/о +27.5 +5.7 25 +27 +27 жарко 998.2 881.0
18 18.07 В 2 20 км н/о +24.5 +1.4 22 +23 +23 комфорт 998.4 880.0 +37.8
21 18.07 штиль 0 21 км н/о +16.9 +5.5 47 +17 +17 999.2 877.8
00 19.07 С 1 17 км 9/9
[]
+15.8 +7.3 57 +17 +17 1000.6 878.6
03 19.07 Ю 6 7000 м пыльный позёмок 5/5
[]
+32.0 +3.9 17 +30 +32 жарко 999.1 883.4
06 19.07 С 2 14 км 9/9 1500 м
[]
+36.6 -1.4 9 +33 +35 жарко 997.5 883.6 +15.0

 

Местоположение метеостанции Тажонг (Синьцзян-Уйгурский автономный район, Китай): широта 39.00 долгота 83.67 высота над уровнем моря 1099 м.

В архиве по умолчанию представлена погода в Тажонге за последнюю неделю. Архивные данные за месяц целиком и за предыдущие месяцы, начиная с января 2011 года, Вы можете получить, выбрав интересующий диапазон дат из раскрывающегося списка и нажав кнопку "Ввод!".


*Определитесь, кто Вы:
робот инопланетянин человек

Внимание! Время в таблицах - всемирное. Для получения местного времени необходимо прибавить поправку, которая равна 8 ч.

Смотрите также архив погоды в соседних городах и на ближайших метеорологических станциях:

Погода в Аларе (Синьцзян-Уйгурский автономный район, Китай) (279 км)
Погода в Куче (Синьцзян-Уйгурский автономный район, Китай) (309 км)
Погода в Корле (Синьцзян-Уйгурский автономный район, Китай) (370 км)
Погода в Хотане (Синьцзян-Уйгурский автономный район, Китай) (388 км)
Погода в Чарклыке (Синьцзян-Уйгурский автономный район, Китай) (389 км)
Погода в Тиканлике (Синьцзян-Уйгурский автономный район, Китай) (389 км)
Погода в Бачу (Синьцзян-Уйгурский автономный район, Китай) (447 км)
Погода в Баянбулаке (Синьцзян-Уйгурский автономный район, Китай) (450 км)
Погода в Балун Тай Кун (Синьцзян-Уйгурский автономный район, Китай) (465 км)
Погода в Акчи (Синьцзян-Уйгурский автономный район, Китай) (494 км)

Пояснения к столбцам:

Ветер - указаны скорость ветра в м/с - средняя за 10 мин, порывы в срок и между сроками (в фигурных скобках) и направление, откуда дует ветер: С - северный, СВ - северо-восточный, В - восточный, ЮВ - юго-восточный, Ю - южный, ЮЗ - юго-западный, З - западный, СЗ - северо-западный.
Видимость - горизонтальная дальность видимости в метрах или километрах. При видимости от 1 до 10 км при отсутствии осадков обычно наблюдается дымка, при ухудшении видимости до 1 км и менее - туман. В сухую погоду видимость может ухудшаться дымом, пылью или мглою.
Явления - указаны атмосферные явления, наблюдавшиеся в срок или в последний час перед сроком; фигурными скобками обозначены явления, наблюдавшиеся между сроками (за 1-3 часа до срока); квадратными скобками обозначены град или гололедные отложения с указанием их диаметра в мм.
Облачность - указаны через наклонную черту общая и нижняя облачность в баллах и высота нижней границы облаков в метрах; квадратными скобками обозначены формы облаков: Ci - перистые, Cs - перисто-слоистые, Cc - перисто-кучевые, Ac - высококучевые, As - высокослоистые, Sc - слоисто-кучевые, Ns - слоисто-дождевые, Cu - кучевые, Cb - кучево-дождевые. Подробнее классификацию облаков см. в Атласе облаков (PDF).
T - Температура воздуха - температура, измеренная на высоте 2 м над землей.
Td - Температура точки росы - температура, при понижении до которой содержащийся в воздухе водяной пар достигнет насыщения.
f - Относительная влажность воздуха - влажноcть воздуха, измеренная на высоте 2 м над землей.
Te - Эффективная температура - температура, которую ощущает одетый по сезону человек в тени. Характеристика душности погоды. При расчете учитывается влияние влажности воздуха и скорости ветра на теплоощущения человека.
Tes - Эффективная температура на солнце - температура, которую ощущает человек, с поправкой на солнечный нагрев. Характеристика знойности погоды. Зависит от высоты солнца над горизонтом, облачности и скорости ветра. Ночью, в пасмурную погоду, а также при ветре 12 м/с и более поправка равна нулю.
P - Атмосферное давление - приведенное к уровню моря атмосферное давление.
Po - Атмосферное давление - измеренное на уровне метеостанции атмосферное давление.
Tmin - Минимальная температура - минимум температуры воздуха на высоте 2 м над землей.
Tmax - Максимальная температура - максимум температуры воздуха на высоте 2 м над землей.
R - Количество осадков - Количество выпавших осадков за период времени, мм. При наведении курсора мыши на число - период времени, за который выпало указанное количество осадков.
R24 - Количество осадков - Количество выпавших осадков за 24 часа, мм.
S - Снежный покров - Высота снежного покрова, см. При наведении курсора мыши на число - состояние снежного покрова и степень покрытия местности в баллах.